TimeCDT,TemperatureF,Dew PointF,Humidity,Sea Level PressureIn,VisibilityMPH,Wind Direction,Wind SpeedMPH,Gust SpeedMPH,PrecipitationIn,Events,Conditions,WindDirDegrees,DateUTC
12:15 AM,74.3,57.6,56,29.98,10.0,East,6.9,-,N/A,,Clear,100,2013-07-04 05:15:00
12:35 AM,72.7,58.1,60,29.98,10.0,ESE,6.9,-,N/A,,Clear,110,2013-07-04 05:35:00
12:55 AM,73.4,57.7,58,29.98,10.0,East,6.9,-,N/A,,Clear,100,2013-07-04 05:55:00
1:15 AM,73.6,57.4,57,29.99,10.0,ESE,8.1,-,N/A,,Clear,110,2013-07-04 06:15:00
1:35 AM,73.4,57.6,58,29.99,10.0,ESE,8.1,-,N/A,,Clear,110,2013-07-04 06:35:00
1:55 AM,73.0,57.7,59,29.99,10.0,ESE,6.9,-,N/A,,Clear,110,2013-07-04 06:55:00
2:15 AM,72.9,57.7,59,29.99,10.0,ESE,6.9,-,N/A,,Clear,110,2013-07-04 07:15:00
2:35 AM,72.0,57.7,61,29.98,10.0,East,6.9,-,N/A,,Clear,100,2013-07-04 07:35:00
2:55 AM,72.0,58.1,62,29.99,10.0,ESE,5.8,-,N/A,,Clear,110,2013-07-04 07:55:00
3:15 AM,71.6,58.1,62,29.99,10.0,East,5.8,-,N/A,,Clear,100,2013-07-04 08:15:00
3:35 AM,71.6,58.3,63,29.98,10.0,ESE,5.8,-,N/A,,Clear,110,2013-07-04 08:35:00
3:55 AM,71.2,58.6,64,29.97,10.0,East,6.9,-,N/A,,Clear,100,2013-07-04 08:55:00
4:15 AM,70.9,59.0,66,29.98,10.0,ESE,5.8,-,N/A,,Clear,110,2013-07-04 09:15:00
4:35 AM,70.2,59.0,68,29.98,7.0,SE,5.8,-,N/A,,Clear,130,2013-07-04 09:35:00
4:55 AM,70.0,59.2,68,29.98,10.0,ESE,5.8,-,N/A,,Clear,110,2013-07-04 09:55:00
5:15 AM,69.4,59.4,70,29.98,10.0,ESE,6.9,-,N/A,,Clear,110,2013-07-04 10:15:00
5:35 AM,69.6,59.5,70,29.98,10.0,East,6.9,-,N/A,,Clear,100,2013-07-04 10:35:00
5:55 AM,70.2,59.9,70,29.98,10.0,East,5.8,-,N/A,,Clear,100,2013-07-04 10:55:00
6:15 AM,69.8,59.9,71,29.99,10.0,East,5.8,-,N/A,,Clear,100,2013-07-04 11:15:00
6:35 AM,69.8,60.1,71,29.99,10.0,East,6.9,-,N/A,,Clear,100,2013-07-04 11:35:00
6:55 AM,70.3,60.4,71,29.99,10.0,East,6.9,-,N/A,,Clear,100,2013-07-04 11:55:00
7:15 AM,71.6,60.8,69,30.00,10.0,East,5.8,-,N/A,,Clear,100,2013-07-04 12:15:00
7:35 AM,72.1,61.3,69,30.00,10.0,East,6.9,-,N/A,,Clear,100,2013-07-04 12:35:00
7:55 AM,73.0,61.7,67,30.00,10.0,East,5.8,-,N/A,,Clear,100,2013-07-04 12:55:00
8:15 AM,74.8,62.1,64,30.00,10.0,ESE,6.9,-,N/A,,Clear,110,2013-07-04 13:15:00
8:35 AM,76.1,62.6,63,30.02,7.0,ESE,6.9,-,N/A,,Clear,120,2013-07-04 13:35:00
8:55 AM,77.9,62.8,60,30.02,3.0,SE,6.9,-,N/A,,Haze,130,2013-07-04 13:55:00
9:15 AM,79.0,63.1,58,30.02,7.0,SSE,5.8,-,N/A,,Clear,150,2013-07-04 14:15:00
9:35 AM,80.4,64.4,58,30.02,10.0,SSE,8.1,-,N/A,,Clear,160,2013-07-04 14:35:00
9:55 AM,80.8,64.6,58,30.02,10.0,SSE,5.8,-,N/A,,Clear,150,2013-07-04 14:55:00
10:15 AM,82.4,63.9,53,30.02,10.0,South,6.9,-,N/A,,Clear,190,2013-07-04 15:15:00
10:35 AM,82.9,62.4,50,30.02,10.0,SW,5.8,-,N/A,,Clear,220,2013-07-04 15:35:00
10:55 AM,83.5,62.2,49,30.00,10.0,SSW,9.2,-,N/A,,Clear,200,2013-07-04 15:55:00
11:15 AM,84.9,62.8,47,30.00,10.0,South,8.1,-,N/A,,Clear,180,2013-07-04 16:15:00
11:35 AM,85.5,61.3,44,30.00,10.0,SSE,10.4,16.1,N/A,,Clear,150,2013-07-04 16:35:00
11:55 AM,86.7,62.4,44,29.99,10.0,South,11.5,16.1,N/A,,Clear,170,2013-07-04 16:55:00
12:15 PM,87.3,63.0,44,29.99,10.0,South,5.8,9.2,N/A,,Clear,180,2013-07-04 17:15:00
12:35 PM,87.4,62.1,42,29.99,10.0,South,6.9,-,N/A,,Clear,190,2013-07-04 17:35:00
12:55 PM,88.5,62.6,42,29.98,10.0,South,5.8,-,N/A,,Clear,190,2013-07-04 17:55:00
1:15 PM,89.2,60.4,38,29.98,10.0,SSE,4.6,-,N/A,,Clear,160,2013-07-04 18:15:00
1:35 PM,89.4,62.2,40,29.97,10.0,WSW,5.8,-,N/A,,Clear,240,2013-07-04 18:35:00
1:55 PM,89.4,59.7,37,29.96,10.0,South,3.5,-,N/A,,Scattered Clouds,170,2013-07-04 18:55:00
2:15 PM,87.4,59.9,39,29.96,10.0,SW,4.6,-,N/A,,Scattered Clouds,220,2013-07-04 19:15:00
2:35 PM,90.5,60.1,36,29.95,10.0,WSW,9.2,-,N/A,,Scattered Clouds,250,2013-07-04 19:35:00
2:55 PM,90.1,59.4,35,29.94,10.0,WSW,3.5,-,N/A,,Scattered Clouds,250,2013-07-04 19:55:00
3:15 PM,90.3,58.1,34,29.94,10.0,West,6.9,-,N/A,,Scattered Clouds,270,2013-07-04 20:15:00
3:35 PM,90.7,58.8,34,29.93,10.0,WSW,4.6,-,N/A,,Clear,250,2013-07-04 20:35:00
3:55 PM,92.7,60.1,34,29.92,10.0,South,10.4,25.3,N/A,,Clear,170,2013-07-04 20:55:00
4:15 PM,91.6,58.5,33,29.92,10.0,West,5.8,-,N/A,,Clear,270,2013-07-04 21:15:00
4:35 PM,91.4,58.1,32,29.92,10.0,NW,4.6,-,N/A,,Clear,320,2013-07-04 21:35:00
4:55 PM,92.1,58.3,32,29.92,10.0,West,4.6,-,N/A,,Clear,260,2013-07-04 21:55:00
5:15 PM,91.4,57.4,32,29.91,10.0,NE,3.5,-,N/A,,Clear,40,2013-07-04 22:15:00
5:35 PM,92.5,59.2,33,29.91,10.0,ENE,12.7,-,N/A,,Clear,60,2013-07-04 22:35:00
5:55 PM,85.6,62.6,46,29.91,10.0,East,18.4,25.3,N/A,,Clear,100,2013-07-04 22:55:00
6:15 PM,86.0,62.6,45,29.92,10.0,East,15.0,21.9,N/A,,Clear,80,2013-07-04 23:15:00
6:35 PM,86.0,62.8,46,29.91,10.0,East,11.5,21.9,N/A,,Clear,100,2013-07-04 23:35:00
6:55 PM,85.6,61.5,44,29.91,10.0,East,10.4,21.9,N/A,,Clear,90,2013-07-04 23:55:00
7:15 PM,85.1,61.9,46,29.92,10.0,East,11.5,-,N/A,,Clear,90,2013-07-05 00:15:00
7:35 PM,84.4,62.6,48,29.92,10.0,East,8.1,-,N/A,,Clear,90,2013-07-05 00:35:00
7:55 PM,83.3,61.7,48,29.92,10.0,East,10.4,-,N/A,,Clear,100,2013-07-05 00:55:00
8:15 PM,82.4,61.5,49,29.93,10.0,East,8.1,-,N/A,,Clear,100,2013-07-05 01:15:00
8:35 PM,81.5,61.7,51,29.93,10.0,East,9.2,-,N/A,,Clear,100,2013-07-05 01:35:00
8:55 PM,80.6,61.3,52,29.93,10.0,East,9.2,-,N/A,,Clear,90,2013-07-05 01:55:00
9:15 PM,79.7,61.0,53,29.94,10.0,East,8.1,-,N/A,,Clear,90,2013-07-05 02:15:00
9:35 PM,79.0,61.2,54,29.94,10.0,ESE,6.9,-,N/A,,Clear,110,2013-07-05 02:35:00
9:55 PM,78.3,61.7,57,29.95,10.0,ESE,5.8,-,N/A,,Clear,110,2013-07-05 02:55:00
10:15 PM,77.9,62.1,58,29.95,10.0,ESE,8.1,-,N/A,,Clear,120,2013-07-05 03:15:00
10:35 PM,77.0,62.2,60,29.96,10.0,ESE,5.8,-,N/A,,Clear,110,2013-07-05 03:35:00
10:55 PM,76.1,62.6,63,29.97,10.0,ESE,4.6,-,N/A,,Clear,110,2013-07-05 03:55:00
11:15 PM,75.6,63.0,65,29.97,10.0,ESE,5.8,-,N/A,,Clear,120,2013-07-05 04:15:00
11:35 PM,75.2,63.3,66,29.97,10.0,ESE,5.8,-,N/A,,Clear,120,2013-07-05 04:35:00
11:55 PM,74.1,63.5,69,29.97,10.0,ESE,4.6,-,N/A,,Clear,120,2013-07-05 04:55:00